Showing default

IRIDE-MS1-EAG2-13, 68450

Orbit data source: Space-Track

IRIDE-MS1-EAG2-13, 68450 is an Italian payload satellite in SSO that was launched on Mon, 30 Mar 2026 UTC via an FALCON 9 launch vehicle from the Air Force Western Test Range (AFWTR). Payload-class satellites include a variety of spacecraft equipped with specific instruments for various scientific and technological missions. These include communications satellites like Starlink; space stations such as the ISS; scientific satellites like the Hubble; Earth observation satellites from companies like Planet Labs, Umbra, and HawkEye 360; GPS; miniature CubeSats for education and research; and military/defense satellites.

Loading next visibility...
Identifier
68450, 2026-067AL
Orbit
SSO
Country
Flag of ITIT
Related business
Manufacturer
OHB-I
Mission
Operational Commercial Technology
Bus & Motor
EAGLET, Unknown motor
Mass
25 kg wet, 25 kg dry
Launch date (UTC)
2026-03-30 (6 months ago)
Launch vehicle
FALCON 9
Launch site
Air Force Western Test Range (AFWTR)
Object type
Payload
Rocket body
Debris
Shape & HBR
Box + 2 Pan, 1.0 m
Radar Cross Section
0.368 m², Medium (>0.1 m² and < 1m²)

Expand to show TLE details & history
Last TLE update: 10 hours ago

TLE from 10 hours ago
0 IRIDE-MS1-EAG2-13
1 68450U 26067AL  26263.16318447  .00005240  00000-0  24731-3 0  9998
2 68450  97.4647 220.5018 0004258  68.5186 291.6502 15.19873251 26367
Epoch: 2026-09-20T03:54Z
TLE epoch observation values (Epoch: 2026-09-20T03:54:59.138Z)
Latitude
-0.00007°
Longitude
162.69409°
Altitude
508.231 km
Speed
7.61 km/s
True Right ascension
14h 42m 00s
True Declination
0° 00' 00"
Sunlit
Object was in daylight at epoch
Visualization orbit readout
Latitude
Unknown
Longitude
Unknown
Altitude
Unknown
Speed
Unknown
Apparent Right ascension
Unknown
Apparent Declination
Unknown
Sunlit
N/A
Visualization observer readout
Local Sidereal Time
06:56:16
Azimuth
Unknown
Elevation
Unknown
Doppler factor
Unknown
Orbital elements
Apogee altitude
506.122 km
Perigee altitude
500.262 km
Semi-major axis
6,881.329 km
Eccentricity
0.00043
Inclination
97.4647°
RAAN
220.5018°
Arg. of periapsis
68.5186°
True anomaly
291.60484°
Mean anomaly
291.6502°
Eccentric anomaly
291.62752°
Mean motion
3.8022 °/min
Orbital period
94.68 mins
BSTAR
0.00024731
Loading maneuver chart data...
Computing Atmospheric mass density...
Loading historical data...
Loading historical data...
Loading historical data...
Loading historical data...
Loading historical data...
Loading historical data...
Loading historical data...

Documentation

Showing up to 5 results
|